Probability
0 1 2 1 1 2 3 3 4 6 6 6 6 5 2 0 0 0 0 0 0 1 2 3 2 1 1 0 0 0 0 0 0 0 0 0 0 0 0 0 0 0 0
0 1 2 1 0 1 3 3 4 5 6 6 6 5 3 1 0 0 0 0 0 1 2 3 3 3 2 1 0 0 0 0 0 0 0 0 0 0 0 0 0 0 0
1 2 2 1 0 1 3 3 3 4 5 6 6 5 4 2 1 0 0 0 0 1 3 3 3 4 4 3 1 0 0 0 0 0 0 0 0 0 0 0 0 0 0
1 2 2 1 1 2 3 3 3 3 4 4 5 4 3 3 1 1 0 0 1 2 3 3 3 4 4 4 2 1 1 0 0 0 0 0 0 0 0 0 0 0 0
1 1 2 2 1 2 3 3 3 3 3 3 4 3 3 3 3 2 1 0 1 2 3 3 3 4 4 4 4 3 1 0 0 0 0 0 0 0 0 1 1 0 0
1 1 2 2 3 4 4 3 3 3 3 3 3 3 3 3 3 3 2 1 1 2 2 2 3 4 4 4 5 4 2 1 1 0 0 0 0 0 0 1 1 1 0
0 1 1 2 4 6 5 4 3 3 3 3 3 3 3 3 3 3 3 3 2 2 2 1 2 4 5 5 6 5 3 2 1 0 0 0 0 0 0 1 1 2 1
0 0 0 1 3 4 5 5 4 4 4 4 2 2 2 2 2 2 2 2 2 1 1 0 0 2 3 4 4 3 3 2 1 0 0 0 0 1 1 1 1 2 2
0 0 0 0 1 2 4 6 6 5 6 5 2 1 1 1 1 1 1 1 1 0 0 0 0 0 1 2 1 1 2 2 1 0 0 0 1 2 3 2 1 1 1
1 0 0 0 1 1 3 5 6 5 5 5 3 1 0 0 0 0 0 0 0 0 0 0 1 1 2 2 1 1 1 1 0 0 0 1 3 4 4 3 3 2 1
1 0 0 1 3 3 3 4 4 3 3 3 3 2 1 1 1 1 0 0 0 0 0 1 2 2 2 2 1 1 1 1 0 0 0 1 3 3 3 3 3 2 2
2 2 2 3 5 6 5 4 2 1 1 1 2 3 3 2 2 2 1 0 0 0 0 1 2 1 1 1 0 0 0 0 0 0 0 0 1 2 2 2 1 1 1
6 6 6 6 7 8 7 5 4 3 2 2 2 3 3 3 3 3 2 1 0 0 0 1 1 0 0 0 0 0 0 0 0 0 0 0 0 1 1 1 1 1 0
8 9 9 9 10 10 8 6 6 6 5 4 5 5 3 2 2 3 3 2 1 0 0 0 0 0 0 0 0 0 0 0 0 0 0 0 1 1 1 1 2 2 1
9 10 11 11 12 12 11 10 8 8 8 7 6 6 5 3 2 2 3 2 1 0 0 0 0 0 0 0 0 0 0 0 0 0 0 0 1 2 2 3 3 3 3
10 11 11 12 13 13 13 12 11 10 9 9 8 7 6 4 3 2 2 2 1 1 1 1 1 0 0 0 0 0 0 0 0 0 0 0 1 2 3 3 3 3 4
12 11 12 13 13 12 11 12 12 10 10 9 9 8 7 6 5 4 3 2 3 3 3 2 2 1 0 0 0 0 0 0 0 0 0 0 0 1 1 2 2 3 3
14 12 13 13 12 11 10 11 11 10 9 9 8 8 7 6 6 5 4 3 4 5 4 3 3 2 1 0 0 0 0 0 0 0 0 0 1 1 1 1 1 2 2
15 14 14 14 12 12 11 11 10 8 7 6 5 5 6 6 5 4 3 3 4 4 4 4 4 3 2 1 1 0 0 0 0 0 0 1 2 2 2 2 2 2 2
15 15 15 14 13 13 12 10 9 6 5 4 3 3 4 4 4 3 3 3 3 4 4 5 6 4 3 2 1 0 0 0 0 0 1 2 3 3 3 3 3 3 3
13 13 14 14 13 13 12 10 8 6 4 3 3 3 2 1 2 3 3 3 4 5 4 4 5 4 2 1 1 1 0 0 0 1 2 3 3 3 3 3 3 3 3
9 10 11 12 13 12 11 9 8 6 4 3 3 2 1 1 2 3 3 4 5 5 4 4 4 4 3 3 2 2 1 1 1 2 3 3 3 3 3 3 3 3 3
8 8 9 10 11 11 9 7 7 6 4 3 3 1 0 1 2 3 4 6 7 6 5 4 5 5 4 4 3 3 3 2 3 3 3 3 2 2 2 3 3 3 3
12 10 9 9 9 9 8 6 6 6 5 4 2 1 1 2 3 4 5 6 7 7 6 5 4 4 4 3 3 3 3 3 3 3 2 1 1 1 1 1 2 3 3
17 15 13 10 8 8 8 6 5 5 5 4 3 3 3 4 5 6 5 4 4 5 4 3 3 3 3 3 3 3 3 3 3 3 2 0 0 0 0 0 1 2 2
20 18 16 13 9 7 7 6 4 4 4 4 5 5 5 6 6 6 4 2 2 3 3 2 2 3 3 3 3 3 3 3 3 3 2 1 0 0 0 1 1 1 1
Wind_Speed
3 5 9 9 8 9 9 9 10 10 10 10 10 10 10 10 10 10 10 9 9 9 10 10 10 11 11 12 12 12 11 11 11 11 11 11 11 10 10 10 9 8 11
6 6 10 9 9 9 9 10 10 10 10 10 10 10 9 9 9 10 10 9 9 10 10 10 11 11 11 11 11 11 11 11 10 10 10 9 9 9 10 10 9 6 10
7 6 8 10 10 10 10 10 10 9 10 10 10 9 9 9 9 9 9 9 9 9 10 11 11 11 11 10 11 11 11 11 10 10 9 5 6 9 9 10 9 9 9
8 5 7 11 10 10 10 10 9 9 9 9 9 9 9 8 8 8 9 9 9 9 9 10 10 10 10 10 10 10 10 10 10 9 4 4 4 8 9 9 9 9 9
7 5 7 11 10 10 10 10 9 9 9 9 8 8 8 7 7 7 8 9 9 9 9 10 10 10 9 10 10 10 9 9 9 7 5 4 4 7 8 8 8 8 8
6 5 6 11 10 10 9 9 9 9 8 8 8 8 7 7 7 7 7 8 8 8 8 9 9 9 8 9 9 9 9 9 7 4 4 4 4 6 7 7 8 8 8
6 4 4 10 9 9 9 9 9 8 8 7 7 7 7 7 7 7 7 8 8 8 8 8 8 8 8 8 8 9 9 8 5 4 4 4 4 7 7 7 7 7 7
6 4 4 8 9 8 8 8 7 7 7 7 7 7 6 6 6 6 7 7 7 7 7 7 7 7 7 7 7 8 8 7 6 5 4 3 5 6 6 6 6 6 6
5 4 3 4 5 7 8 7 7 7 7 6 6 6 6 6 6 6 6 6 6 6 6 7 6 6 7 6 7 7 7 7 5 3 4 2 5 5 5 6 5 5 5
4 3 3 3 3 3 4 7 7 6 6 6 6 5 5 5 5 5 4 5 5 5 5 6 6 6 6 6 6 7 7 5 4 3 2 2 5 5 4 4 5 4 5
4 3 3 3 3 3 3 5 5 5 4 4 4 4 4 2 2 2 3 3 3 4 4 5 6 6 5 5 6 6 5 3 3 2 1 3 4 4 4 4 4 4 4
7 5 3 3 3 3 3 3 2 2 2 2 2 2 2 2 1 2 2 3 3 3 4 4 5 4 3 2 4 4 2 3 2 1 1 3 3 4 4 4 4 4 4
7 6 5 4 3 3 2 2 1 1 1 1 2 2 2 2 1 2 1 2 2 2 2 3 3 2 2 2 2 2 3 2 1 1 1 3 3 4 4 4 4 4 4
7 6 5 5 4 3 2 2 2 1 1 1 1 1 2 1 1 1 1 1 2 1 2 2 2 2 3 3 3 3 2 2 1 0 1 2 2 3 3 3 3 4 4
7 6 6 5 5 4 3 2 3 2 2 1 1 1 2 1 1 1 1 1 1 1 1 2 2 2 2 2 2 3 2 1 1 0 0 1 1 1 2 2 3 4 4
8 7 6 7 6 4 3 2 2 2 2 1 1 1 2 1 1 1 1 1 1 1 1 1 2 2 2 2 2 2 2 1 1 0 1 1 1 1 1 1 2 3 4
8 7 7 7 5 5 3 3 2 2 2 1 1 2 2 2 2 1 1 1 1 1 2 2 2 2 2 2 2 2 1 1 1 0 0 0 1 1 0 1 1 2 3
7 7 7 7 6 5 4 3 2 2 2 1 1 1 2 2 2 2 1 1 1 1 2 2 2 2 2 2 2 1 1 1 0 1 0 0 0 1 1 0 1 1 2
7 7 6 5 5 5 4 2 2 2 1 1 1 1 1 2 3 2 1 1 1 2 2 2 2 2 2 1 1 1 1 1 1 0 0 0 0 0 1 1 1 1 1
6 6 6 5 5 4 2 2 1 1 1 1 1 1 2 1 2 2 2 1 2 2 2 2 2 2 2 1 2 2 2 1 1 1 1 1 1 0 0 1 1 1 0
5 6 6 6 5 5 3 3 2 2 1 1 1 1 2 2 2 2 2 2 2 2 2 2 2 3 2 1 2 2 2 2 1 1 1 1 1 1 0 0 0 0 0
6 6 6 6 6 6 4 3 2 2 1 1 0 1 2 2 2 2 2 2 2 2 3 2 2 2 1 1 2 2 1 2 2 2 1 1 1 1 1 1 0 0 0
7 8 7 6 6 5 5 3 2 2 2 1 0 0 1 2 2 2 3 2 2 2 2 2 2 3 2 1 1 2 2 1 1 2 1 1 1 1 1 1 0 0 0
6 5 6 6 5 5 5 5 5 4 3 2 1 1 1 1 2 2 3 3 2 2 2 2 2 1 2 1 0 0 1 2 2 1 2 2 1 1 1 1 1 1 1
4 4 4 5 5 4 5 6 5 3 2 2 2 2 1 1 1 2 2 2 2 2 2 2 2 2 1 1 1 1 1 1 1 1 1 2 2 1 1 1 1 1 1
3 4 4 5 4 4 5 5 5 5 4 4 3 2 1 1 1 1 2 2 2 2 2 2 2 2 2 2 1 1 2 2 2 2 2 1 2 2 2 1 1 1 1
Wind_Direction
161 162 152 143 135 124 119 116 111 106 104 105 110 112 113 116 121 123 122 120 119 116 114 114 114 116 115 116 117 119 119 121 122 122 123 124 127 129 129 126 122 120 125
146 152 151 145 137 129 125 119 113 110 108 108 110 112 116 115 118 123 122 122 119 117 115 113 116 117 118 118 119 122 125 125 123 123 122 126 127 131 133 130 128 126 129
134 146 149 145 139 134 127 121 117 115 114 112 111 112 114 116 118 122 123 122 120 119 120 118 117 117 118 119 120 119 123 125 123 121 117 111 123 132 134 133 133 130 131
135 138 144 144 141 136 129 125 121 117 116 114 114 115 115 116 120 123 127 125 123 122 123 122 121 120 120 121 123 121 121 124 124 123 110 106 115 129 132 134 134 132 133
129 131 150 144 141 136 133 128 124 121 118 115 116 116 116 117 120 123 126 126 124 124 124 122 123 124 123 123 125 124 121 121 123 121 109 103 106 128 133 137 137 138 137
128 133 155 145 143 138 137 132 128 125 121 117 117 116 113 114 119 123 124 125 124 125 126 125 125 125 125 126 128 126 122 120 118 108 108 112 121 134 138 142 141 141 141
132 133 151 146 145 142 139 134 131 128 123 119 118 116 112 108 109 118 124 123 123 124 124 125 124 126 126 128 130 130 126 122 110 106 108 118 131 137 141 143 142 145 146
132 132 137 145 144 142 139 137 132 132 129 125 121 117 115 114 110 114 123 125 127 128 126 125 124 124 126 129 129 129 127 120 111 114 114 126 137 141 147 144 142 144 145
126 126 128 135 142 148 146 141 133 128 131 129 124 121 119 118 118 118 122 125 128 130 129 126 123 123 125 128 126 129 130 124 106 111 123 130 144 149 151 151 152 152 154
125 128 131 125 122 133 144 144 138 132 131 131 130 130 128 123 117 116 114 119 123 128 130 129 125 121 125 127 126 126 126 116 103 105 111 138 148 157 156 164 165 165 163
148 149 143 135 128 127 138 145 139 135 125 121 122 127 117 79 71 88 104 112 122 127 126 126 122 119 119 118 121 119 111 98 106 105 121 145 157 168 171 178 173 172 171
173 174 161 150 143 138 146 122 109 113 105 88 75 77 76 73 65 80 85 100 103 108 119 118 120 116 107 86 98 107 95 103 105 130 152 157 170 176 179 179 177 176 176
177 176 174 164 152 143 123 118 106 97 96 89 91 86 82 75 61 51 53 49 45 59 61 71 78 90 95 97 96 100 109 114 122 154 168 165 179 179 181 186 189 185 180
174 183 175 167 157 151 132 134 132 127 128 126 125 120 106 94 79 66 64 57 54 51 60 66 80 94 98 101 112 114 114 119 125 151 199 180 194 198 199 198 195 195 191
178 182 177 172 168 160 146 158 155 159 157 158 140 137 130 124 119 98 79 78 76 77 85 87 89 100 103 111 117 118 121 127 127 90 287 180 205 245 216 217 205 198 192
183 184 179 177 175 164 162 169 155 155 147 148 155 159 151 142 133 125 105 93 87 92 94 98 111 120 112 103 95 104 112 116 98 60 348 333 289 242 221 230 201 183 186
185 181 180 176 172 172 170 165 148 152 146 156 171 169 164 156 146 137 132 110 110 111 105 99 91 97 102 100 91 90 109 132 152 235 286 308 303 297 269 209 174 180 188
175 175 181 179 174 175 170 160 140 146 149 157 168 167 171 168 157 145 147 148 128 120 119 114 107 96 86 86 84 73 76 97 201 227 219 273 313 326 322 290 202 190 187
175 173 175 173 173 178 170 151 137 134 146 147 144 160 171 162 155 149 158 149 127 118 116 124 104 110 108 98 94 66 30 18 318 287 343 312 336 331 320 317 278 216 194
165 164 169 170 169 161 143 119 100 102 138 134 155 163 158 150 146 144 149 137 125 115 107 106 104 93 100 108 88 53 31 7 6 352 317 338 331 300 311 309 315 331 178
154 163 172 174 168 154 152 159 160 197 204 187 191 169 161 147 141 140 144 135 135 133 136 132 120 103 87 93 82 42 22 27 30 2 0 352 330 315 348 1 28 14 35
167 175 177 179 169 167 169 164 165 159 172 183 168 146 160 156 145 152 154 156 147 131 125 129 127 122 96 88 112 93 20 0 3 13 18 349 319 335 332 330 26 38 2
177 182 183 178 172 169 157 127 109 84 68 73 65 130 174 170 161 154 165 161 151 145 156 160 146 142 136 90 110 139 144 210 325 343 357 2 354 345 306 309 305 311 223
190 176 172 165 161 163 155 157 162 166 174 193 184 175 142 141 150 155 158 156 153 145 151 162 131 126 128 127 78 57 135 148 149 326 337 348 346 321 302 293 293 286 250
169 159 156 149 147 154 165 171 165 162 163 141 125 132 129 124 135 142 139 141 147 145 149 140 123 126 137 153 163 156 126 91 131 164 276 323 337 317 297 277 272 271 262
153 151 148 145 147 155 163 165 162 158 150 141 145 151 156 148 135 139 146 145 154 156 159 163 159 161 166 171 172 172 172 172 186 176 203 249 287 299 302 284 263 260 254